Location: Roland
(31.1349°N, 85.4372°W)
Time: 22:40:36
(UTC+00:00)

Tiros 1 - Pass Details

Date: 25 April 2021
Orbit: 630 x 664 km, 48.4° (Epoch: 13 May)

Event Time Altitude Azimuth Distance (km) Brightness Sun altitude
Rises 18:29:25 0° 318° (NW) 2,919 10.5 68.9°
Reaches altitude 10° 18:31:56 10° 328° (NNW) 2,007 9.7 68.6°
Maximum altitude 18:36:06 33° 33° (NNE) 1,060 8.5 68.1°
Drops below altitude 10° 18:40:16 10° 97° (E) 2,000 9.7 67.5°
Sets 18:42:46 0° 107° (ESE) 2,906 10.4 67.1°
